{"data":{"norad_id":47796,"intl_designator":"2021-018K","name":"STARLINK-2373","alt_names":[],"object_type":"PAYLOAD","status":"ACTIVE","operator":null,"country":"US","launch_date":"2021-03-11","launch_site_code":"AFETR","launch_vehicle":null,"mission":null,"orbit_class":"UNKNOWN","rcs_meters":null,"size_class":null,"mass_kg":null,"dimensions":null,"purposes":["comms"],"wikipedia_slug":null,"has_3d_model":false,"image_url":null,"decayed_at":null,"tle_current":{"epoch":"2026-05-24T23:40:02.204832Z","epoch_age_seconds":75705,"freshness":"FRESH","line1":"1 47796U 21018K   26144.98613663  .00039270  00000+0  12427-2 0  9992","line2":"2 47796  53.1582 244.1397 0001399  26.3760 333.7313 15.32409427288452","mean_motion":15.32409427,"eccentricity":0.0001399,"inclination_deg":53.1582,"raan_deg":244.1397,"arg_perigee_deg":26.376,"mean_anomaly_deg":333.7313,"bstar":0.0012427,"rev_number":28845,"period_min":93.969664675001,"perigee_km":467.66818400251,"apogee_km":469.58390830282,"semimajor_km":6846.7630461527,"source":"CELESTRAK","updated_at":"2026-05-25T13:38:16.598953Z"}}}